QPF
0.00 0.00 0.00 0.00 0.01 0.01 0.03 0.06 0.06 0.06 0.05 0.03 0.03 0.03 0.04 0.05 0.06 0.08 0.06 0.03 0.03 0.05 0.07 0.08 0.07 0.06 0.05 0.03 0.03 0.02 0.02 0.02 0.02 0.01 0.01 0.01 0.02 0.02 0.02 0.03 0.05 0.05 0.04
0.00 0.01 0.01 0.02 0.02 0.03 0.04 0.05 0.04 0.05 0.04 0.03 0.02 0.02 0.02 0.02 0.02 0.03 0.04 0.03 0.01 0.01 0.02 0.05 0.06 0.07 0.05 0.03 0.02 0.01 0.01 0.01 0.01 0.01 0.01 0.01 0.02 0.03 0.03 0.04 0.04 0.04 0.03
0.03 0.04 0.04 0.03 0.04 0.05 0.08 0.06 0.05 0.04 0.03 0.03 0.01 0.01 0.01 0.01 0.00 0.00 0.01 0.02 0.00 0.00 0.00 0.02 0.04 0.05 0.04 0.03 0.02 0.01 0.01 0.01 0.01 0.00 0.00 0.01 0.01 0.01 0.02 0.03 0.04 0.04 0.02
0.05 0.09 0.09 0.08 0.11 0.10 0.08 0.10 0.08 0.07 0.05 0.04 0.02 0.01 0.01 0.01 0.00 0.00 0.00 0.00 0.01 0.00 0.01 0.01 0.03 0.04 0.04 0.04 0.03 0.02 0.01 0.01 0.01 0.01 0.01 0.01 0.01 0.01 0.01 0.02 0.04 0.04 0.02
0.10 0.14 0.14 0.15 0.16 0.13 0.12 0.09 0.08 0.09 0.06 0.06 0.04 0.03 0.01 0.00 0.00 0.00 0.00 0.00 0.00 0.01 0.01 0.01 0.01 0.02 0.03 0.04 0.03 0.03 0.02 0.02 0.01 0.01 0.01 0.01 0.01 0.01 0.01 0.01 0.03 0.03 0.02
0.18 0.19 0.19 0.19 0.16 0.15 0.15 0.14 0.11 0.10 0.07 0.08 0.04 0.02 0.01 0.00 0.00 0.00 0.00 0.00 0.00 0.00 0.01 0.01 0.03 0.02 0.01 0.02 0.03 0.03 0.03 0.02 0.02 0.01 0.01 0.02 0.02 0.02 0.01 0.01 0.02 0.03 0.02
0.24 0.24 0.22 0.21 0.18 0.16 0.15 0.14 0.11 0.08 0.07 0.08 0.05 0.02 0.01 0.00 0.00 0.00 0.00 0.00 0.00 0.00 0.00 0.02 0.03 0.03 0.03 0.01 0.01 0.02 0.03 0.03 0.03 0.02 0.02 0.02 0.02 0.02 0.01 0.01 0.01 0.01 0.02
0.27 0.26 0.24 0.20 0.15 0.11 0.09 0.07 0.05 0.04 0.03 0.05 0.05 0.04 0.01 0.00 0.00 0.00 0.00 0.00 0.00 0.00 0.01 0.02 0.03 0.04 0.02 0.01 0.02 0.01 0.01 0.03 0.04 0.03 0.02 0.01 0.01 0.01 0.01 0.01 0.01 0.01 0.01
0.31 0.26 0.22 0.15 0.10 0.07 0.05 0.03 0.02 0.02 0.01 0.02 0.04 0.07 0.05 0.02 0.01 0.00 0.01 0.01 0.02 0.02 0.01 0.02 0.02 0.03 0.03 0.02 0.03 0.03 0.02 0.01 0.01 0.02 0.03 0.02 0.01 0.01 0.01 0.01 0.01 0.01 0.01
0.33 0.24 0.18 0.14 0.09 0.06 0.03 0.02 0.01 0.01 0.02 0.02 0.03 0.06 0.09 0.10 0.10 0.04 0.02 0.03 0.05 0.04 0.03 0.02 0.02 0.02 0.03 0.03 0.04 0.06 0.06 0.03 0.02 0.01 0.02 0.02 0.02 0.01 0.00 0.01 0.01 0.02 0.02
0.36 0.28 0.18 0.11 0.07 0.04 0.02 0.01 0.01 0.01 0.02 0.03 0.04 0.06 0.07 0.11 0.13 0.12 0.06 0.08 0.09 0.06 0.05 0.04 0.03 0.04 0.04 0.03 0.03 0.04 0.06 0.05 0.03 0.02 0.01 0.01 0.01 0.00 0.00 0.01 0.01 0.03 0.04
0.28 0.22 0.14 0.08 0.05 0.03 0.02 0.01 0.01 0.01 0.02 0.02 0.04 0.05 0.07 0.09 0.12 0.16 0.15 0.15 0.16 0.13 0.13 0.10 0.06 0.06 0.06 0.04 0.04 0.03 0.04 0.04 0.04 0.03 0.02 0.01 0.00 0.00 0.00 0.00 0.01 0.04 0.07
0.22 0.18 0.13 0.07 0.04 0.02 0.01 0.01 0.01 0.01 0.01 0.02 0.02 0.03 0.06 0.09 0.11 0.15 0.18 0.18 0.17 0.15 0.14 0.13 0.10 0.09 0.06 0.06 0.07 0.04 0.03 0.03 0.03 0.03 0.02 0.01 0.01 0.00 0.00 0.00 0.02 0.05 0.10
0.11 0.08 0.05 0.04 0.02 0.01 0.01 0.01 0.01 0.01 0.01 0.01 0.01 0.02 0.03 0.04 0.06 0.09 0.13 0.15 0.14 0.16 0.17 0.17 0.13 0.10 0.08 0.07 0.06 0.03 0.02 0.02 0.02 0.01 0.01 0.01 0.00 0.00 0.00 0.00 0.01 0.04 0.08
0.06 0.04 0.03 0.02 0.01 0.01 0.01 0.01 0.01 0.01 0.01 0.02 0.02 0.02 0.03 0.04 0.04 0.05 0.07 0.09 0.11 0.11 0.11 0.13 0.12 0.10 0.08 0.07 0.05 0.03 0.04 0.03 0.01 0.01 0.00 0.00 0.00 0.00 0.00 0.00 0.00 0.02 0.05
0.03 0.02 0.01 0.01 0.01 0.01 0.01 0.01 0.01 0.01 0.02 0.03 0.03 0.04 0.05 0.05 0.05 0.05 0.06 0.08 0.11 0.12 0.10 0.10 0.10 0.08 0.07 0.05 0.04 0.04 0.05 0.04 0.02 0.01 0.01 0.00 0.00 0.00 0.00 0.01 0.01 0.02 0.05
0.02 0.02 0.01 0.01 0.01 0.01 0.00 0.00 0.01 0.01 0.01 0.02 0.02 0.03 0.04 0.04 0.05 0.04 0.05 0.06 0.08 0.09 0.10 0.11 0.12 0.11 0.12 0.12 0.10 0.08 0.06 0.05 0.05 0.03 0.02 0.01 0.01 0.01 0.01 0.02 0.03 0.04 0.07
0.02 0.01 0.01 0.01 0.00 0.00 0.00 0.01 0.01 0.01 0.01 0.01 0.01 0.02 0.02 0.02 0.02 0.02 0.02 0.03 0.05 0.07 0.08 0.10 0.12 0.14 0.15 0.14 0.13 0.12 0.11 0.10 0.08 0.06 0.04 0.03 0.03 0.03 0.03 0.05 0.07 0.10 0.11
0.01 0.01 0.01 0.00 0.00 0.00 0.01 0.01 0.01 0.01 0.01 0.01 0.01 0.01 0.00 0.00 0.01 0.01 0.02 0.02 0.03 0.05 0.09 0.12 0.14 0.17 0.17 0.16 0.15 0.14 0.14 0.15 0.13 0.11 0.08 0.05 0.04 0.04 0.05 0.07 0.11 0.17 0.17
0.01 0.01 0.01 0.00 0.00 0.00 0.01 0.01 0.00 0.00 0.01 0.00 0.00 0.00 0.00 0.00 0.00 0.00 0.01 0.01 0.02 0.04 0.07 0.10 0.12 0.14 0.15 0.16 0.15 0.17 0.19 0.20 0.17 0.15 0.12 0.08 0.07 0.05 0.06 0.07 0.10 0.18 0.23
0.01 0.00 0.00 0.00 0.00 0.00 0.00 0.00 0.00 0.00 0.00 0.00 0.00 0.00 0.00 0.00 0.00 0.00 0.00 0.00 0.01 0.02 0.03 0.04 0.05 0.05 0.06 0.07 0.09 0.14 0.19 0.23 0.22 0.20 0.19 0.15 0.10 0.06 0.05 0.05 0.08 0.14 0.23
0.00 0.00 0.00 0.00 0.00 0.00 0.00 0.00 0.00 0.00 0.00 0.00 0.00 0.00 0.00 0.00 0.00 0.00 0.00 0.00 0.00 0.00 0.01 0.01 0.01 0.01 0.02 0.03 0.05 0.10 0.16 0.20 0.28 0.31 0.31 0.27 0.19 0.12 0.09 0.07 0.05 0.07 0.11
0.00 0.00 0.00 0.00 0.00 0.00 0.00 0.00 0.00 0.00 0.00 0.00 0.00 0.00 0.00 0.00 0.00 0.00 0.00 0.00 0.00 0.00 0.00 0.00 0.00 0.00 0.00 0.01 0.03 0.06 0.12 0.19 0.28 0.38 0.47 0.51 0.42 0.28 0.17 0.11 0.07 0.03 0.03
0.00 0.00 0.00 0.00 0.00 0.00 0.00 0.00 0.00 0.00 0.00 0.00 0.00 0.00 0.00 0.00 0.00 0.00 0.00 0.00 0.00 0.00 0.00 0.00 0.00 0.00 0.00 0.01 0.02 0.04 0.07 0.14 0.23 0.33 0.44 0.56 0.54 0.44 0.31 0.20 0.12 0.05 0.03
0.01 0.00 0.00 0.00 0.00 0.00 0.00 0.00 0.00 0.00 0.00 0.00 0.00 0.00 0.00 0.00 0.00 0.00 0.00 0.00 0.00 0.00 0.00 0.00 0.00 0.00 0.00 0.00 0.01 0.01 0.03 0.06 0.12 0.22 0.37 0.56 0.62 0.51 0.44 0.37 0.25 0.16 0.09
0.01 0.00 0.00 0.00 0.00 0.00 0.00 0.00 0.00 0.00 0.00 0.00 0.00 0.00 0.00 0.00 0.00 0.00 0.00 0.00 0.00 0.00 0.00 0.00 0.00 0.00 0.00 0.00 0.00 0.01 0.01 0.03 0.06 0.10 0.20 0.37 0.52 0.47 0.46 0.46 0.43 0.32 0.21
MSLP
1013.88 1013.98 1014.04 1014.07 1014.09 1014.09 1014.09 1014.09 1014.08 1014.05 1013.98 1013.87 1013.71 1013.52 1013.34 1013.18 1013.08 1013.06 1013.13 1013.27 1013.45 1013.64 1013.80 1013.92 1013.99 1014.02 1014.01 1014.02 1014.05 1014.13 1014.27 1014.45 1014.67 1014.90 1015.13 1015.34 1015.53 1015.71 1015.90 1016.10 1016.33 1016.60 1016.90
1013.49 1013.61 1013.68 1013.73 1013.74 1013.74 1013.74 1013.73 1013.71 1013.68 1013.61 1013.50 1013.34 1013.15 1012.94 1012.75 1012.60 1012.52 1012.51 1012.58 1012.70 1012.85 1013.01 1013.15 1013.25 1013.33 1013.39 1013.46 1013.55 1013.68 1013.85 1014.06 1014.29 1014.53 1014.75 1014.96 1015.14 1015.30 1015.46 1015.65 1015.87 1016.13 1016.44
1013.20 1013.34 1013.43 1013.49 1013.51 1013.51 1013.50 1013.49 1013.47 1013.43 1013.36 1013.24 1013.08 1012.86 1012.62 1012.36 1012.13 1011.95 1011.85 1011.82 1011.87 1011.97 1012.11 1012.26 1012.41 1012.56 1012.69 1012.83 1012.99 1013.17 1013.38 1013.62 1013.86 1014.10 1014.32 1014.51 1014.68 1014.83 1014.98 1015.14 1015.36 1015.62 1015.94
1013.01 1013.17 1013.28 1013.35 1013.38 1013.38 1013.37 1013.34 1013.31 1013.27 1013.19 1013.06 1012.88 1012.63 1012.33 1012.00 1011.68 1011.39 1011.17 1011.04 1011.00 1011.04 1011.15 1011.32 1011.50 1011.71 1011.92 1012.13 1012.35 1012.59 1012.84 1013.09 1013.34 1013.58 1013.79 1013.98 1014.13 1014.27 1014.40 1014.56 1014.77 1015.04 1015.38
1012.92 1013.09 1013.22 1013.29 1013.32 1013.32 1013.29 1013.25 1013.20 1013.14 1013.05 1012.91 1012.70 1012.41 1012.06 1011.66 1011.24 1010.85 1010.52 1010.28 1010.15 1010.13 1010.21 1010.37 1010.58 1010.83 1011.10 1011.37 1011.65 1011.92 1012.20 1012.46 1012.72 1012.96 1013.16 1013.34 1013.48 1013.61 1013.75 1013.91 1014.12 1014.40 1014.75
1012.90 1013.08 1013.21 1013.29 1013.31 1013.28 1013.23 1013.17 1013.10 1013.02 1012.91 1012.75 1012.52 1012.21 1011.82 1011.36 1010.87 1010.39 1009.96 1009.63 1009.41 1009.33 1009.36 1009.50 1009.72 1009.99 1010.29 1010.60 1010.91 1011.21 1011.50 1011.77 1012.02 1012.25 1012.45 1012.62 1012.77 1012.90 1013.04 1013.20 1013.42 1013.71 1014.07
1012.94 1013.13 1013.25 1013.31 1013.31 1013.25 1013.17 1013.07 1012.97 1012.87 1012.74 1012.58 1012.34 1012.02 1011.61 1011.13 1010.60 1010.06 1009.57 1009.17 1008.88 1008.72 1008.71 1008.81 1009.00 1009.27 1009.57 1009.88 1010.20 1010.50 1010.79 1011.06 1011.31 1011.53 1011.73 1011.89 1012.04 1012.17 1012.31 1012.48 1012.70 1012.99 1013.37
1013.01 1013.19 1013.30 1013.34 1013.30 1013.21 1013.09 1012.96 1012.83 1012.70 1012.57 1012.40 1012.18 1011.88 1011.48 1011.01 1010.48 1009.92 1009.40 1008.94 1008.60 1008.38 1008.30 1008.35 1008.50 1008.72 1008.99 1009.28 1009.57 1009.86 1010.14 1010.40 1010.64 1010.85 1011.04 1011.21 1011.35 1011.48 1011.62 1011.78 1012.00 1012.29 1012.66
1013.05 1013.23 1013.33 1013.34 1013.27 1013.15 1012.99 1012.83 1012.67 1012.53 1012.40 1012.25 1012.06 1011.79 1011.45 1011.02 1010.52 1009.98 1009.45 1008.98 1008.59 1008.32 1008.17 1008.14 1008.22 1008.38 1008.59 1008.83 1009.08 1009.34 1009.59 1009.84 1010.06 1010.27 1010.46 1010.62 1010.75 1010.87 1010.99 1011.14 1011.33 1011.60 1011.95
1013.04 1013.21 1013.29 1013.29 1013.20 1013.05 1012.87 1012.69 1012.52 1012.37 1012.25 1012.13 1011.98 1011.78 1011.50 1011.13 1010.69 1010.20 1009.70 1009.22 1008.81 1008.49 1008.27 1008.16 1008.16 1008.23 1008.36 1008.54 1008.74 1008.95 1009.18 1009.40 1009.62 1009.82 1009.99 1010.13 1010.25 1010.35 1010.43 1010.54 1010.70 1010.93 1011.25
1012.91 1013.08 1013.17 1013.16 1013.07 1012.91 1012.73 1012.54 1012.37 1012.24 1012.13 1012.05 1011.94 1011.80 1011.59 1011.30 1010.93 1010.50 1010.04 1009.58 1009.15 1008.79 1008.52 1008.33 1008.24 1008.22 1008.27 1008.37 1008.51 1008.69 1008.88 1009.08 1009.28 1009.46 1009.62 1009.74 1009.82 1009.87 1009.91 1009.97 1010.07 1010.24 1010.53
1012.66 1012.84 1012.93 1012.93 1012.85 1012.72 1012.55 1012.38 1012.23 1012.11 1012.03 1011.98 1011.92 1011.83 1011.68 1011.46 1011.16 1010.79 1010.37 1009.93 1009.51 1009.13 1008.80 1008.55 1008.38 1008.28 1008.25 1008.29 1008.37 1008.50 1008.66 1008.84 1009.01 1009.17 1009.30 1009.39 1009.42 1009.42 1009.39 1009.38 1009.41 1009.53 1009.77
1012.28 1012.47 1012.58 1012.61 1012.56 1012.47 1012.33 1012.20 1012.08 1011.99 1011.93 1011.90 1011.87 1011.81 1011.70 1011.53 1011.28 1010.97 1010.59 1010.19 1009.78 1009.39 1009.04 1008.74 1008.51 1008.35 1008.26 1008.23 1008.27 1008.35 1008.48 1008.63 1008.78 1008.91 1008.99 1009.03 1009.01 1008.94 1008.84 1008.75 1008.72 1008.78 1008.97
1011.82 1012.01 1012.14 1012.21 1012.21 1012.17 1012.09 1012.01 1011.93 1011.87 1011.83 1011.80 1011.77 1011.72 1011.63 1011.48 1011.27 1010.99 1010.66 1010.29 1009.90 1009.52 1009.16 1008.85 1008.58 1008.38 1008.25 1008.18 1008.17 1008.22 1008.31 1008.42 1008.54 1008.62 1008.66 1008.64 1008.56 1008.42 1008.25 1008.10 1008.00 1008.01 1008.16
1011.36 1011.55 1011.69 1011.80 1011.85 1011.87 1011.86 1011.83 1011.79 1011.75 1011.72 1011.69 1011.65 1011.59 1011.48 1011.33 1011.13 1010.87 1010.57 1010.23 1009.88 1009.53 1009.19 1008.88 1008.61 1008.39 1008.23 1008.13 1008.09 1008.10 1008.15 1008.22 1008.28 1008.32 1008.31 1008.23 1008.08 1007.88 1007.66 1007.45 1007.31 1007.28 1007.42
1010.97 1011.15 1011.31 1011.44 1011.55 1011.62 1011.67 1011.70 1011.70 1011.68 1011.66 1011.61 1011.54 1011.44 1011.30 1011.13 1010.92 1010.68 1010.40 1010.10 1009.79 1009.48 1009.18 1008.89 1008.64 1008.42 1008.25 1008.12 1008.05 1008.01 1008.01 1008.03 1008.04 1008.02 1007.95 1007.81 1007.62 1007.37 1007.11 1006.88 1006.72 1006.69 1006.82
1010.76 1010.91 1011.06 1011.21 1011.36 1011.49 1011.59 1011.66 1011.70 1011.70 1011.67 1011.60 1011.49 1011.35 1011.18 1010.98 1010.76 1010.51 1010.26 1009.99 1009.73 1009.46 1009.20 1008.96 1008.73 1008.52 1008.34 1008.19 1008.08 1008.00 1007.95 1007.90 1007.85 1007.77 1007.64 1007.47 1007.24 1006.98 1006.71 1006.47 1006.33 1006.31 1006.47
1010.74 1010.86 1011.01 1011.17 1011.34 1011.50 1011.65 1011.76 1011.83 1011.84 1011.81 1011.72 1011.58 1011.40 1011.20 1010.97 1010.73 1010.48 1010.25 1010.02 1009.79 1009.57 1009.36 1009.15 1008.94 1008.74 1008.55 1008.38 1008.22 1008.09 1007.97 1007.86 1007.75 1007.61 1007.45 1007.25 1007.01 1006.75 1006.51 1006.31 1006.21 1006.23 1006.43
1010.94 1011.03 1011.16 1011.32 1011.50 1011.68 1011.85 1011.99 1012.08 1012.11 1012.08 1011.98 1011.83 1011.63 1011.39 1011.15 1010.90 1010.67 1010.44 1010.24 1010.05 1009.87 1009.69 1009.50 1009.31 1009.10 1008.89 1008.68 1008.48 1008.29 1008.11 1007.94 1007.77 1007.59 1007.40 1007.19 1006.97 1006.75 1006.55 1006.42 1006.38 1006.46 1006.71
1011.29 1011.37 1011.48 1011.63 1011.81 1012.00 1012.18 1012.33 1012.44 1012.49 1012.46 1012.37 1012.21 1012.01 1011.78 1011.53 1011.29 1011.06 1010.86 1010.67 1010.50 1010.34 1010.18 1010.00 1009.80 1009.57 1009.33 1009.08 1008.83 1008.58 1008.34 1008.11 1007.90 1007.70 1007.51 1007.31 1007.13 1006.96 1006.84 1006.78 1006.81 1006.96 1007.25
1011.72 1011.79 1011.89 1012.03 1012.20 1012.39 1012.58 1012.74 1012.86 1012.92 1012.91 1012.83 1012.70 1012.51 1012.29 1012.06 1011.84 1011.63 1011.43 1011.26 1011.10 1010.94 1010.77 1010.57 1010.35 1010.09 1009.81 1009.51 1009.21 1008.91 1008.63 1008.37 1008.13 1007.93 1007.74 1007.59 1007.46 1007.36 1007.31 1007.33 1007.44 1007.65 1007.97
1012.12 1012.20 1012.31 1012.45 1012.61 1012.79 1012.97 1013.13 1013.26 1013.34 1013.35 1013.30 1013.19 1013.04 1012.86 1012.66 1012.46 1012.26 1012.08 1011.91 1011.74 1011.56 1011.37 1011.14 1010.88 1010.59 1010.26 1009.92 1009.57 1009.24 1008.93 1008.65 1008.41 1008.22 1008.07 1007.96 1007.89 1007.86 1007.89 1007.98 1008.14 1008.39 1008.73
1012.41 1012.53 1012.66 1012.81 1012.97 1013.14 1013.31 1013.47 1013.60 1013.68 1013.72 1013.70 1013.63 1013.52 1013.38 1013.22 1013.05 1012.87 1012.70 1012.52 1012.34 1012.13 1011.90 1011.63 1011.33 1010.99 1010.62 1010.25 1009.87 1009.52 1009.20 1008.93 1008.71 1008.54 1008.43 1008.37 1008.36 1008.39 1008.47 1008.61 1008.81 1009.07 1009.40
1012.55 1012.72 1012.89 1013.06 1013.22 1013.39 1013.56 1013.71 1013.84 1013.93 1013.98 1013.99 1013.96 1013.89 1013.79 1013.67 1013.53 1013.37 1013.20 1013.02 1012.81 1012.58 1012.31 1012.00 1011.65 1011.27 1010.88 1010.48 1010.09 1009.74 1009.43 1009.17 1008.98 1008.85 1008.78 1008.76 1008.79 1008.87 1008.98 1009.14 1009.34 1009.58 1009.87
1012.54 1012.77 1012.99 1013.19 1013.38 1013.55 1013.72 1013.86 1013.99 1014.08 1014.14 1014.17 1014.17 1014.13 1014.07 1013.98 1013.86 1013.73 1013.56 1013.37 1013.15 1012.89 1012.59 1012.24 1011.87 1011.46 1011.05 1010.64 1010.26 1009.91 1009.62 1009.39 1009.23 1009.13 1009.09 1009.10 1009.16 1009.25 1009.36 1009.51 1009.68 1009.87 1010.10
1012.41 1012.71 1012.99 1013.24 1013.46 1013.65 1013.82 1013.97 1014.09 1014.18 1014.24 1014.28 1014.29 1014.27 1014.23 1014.16 1014.07 1013.95 1013.79 1013.61 1013.38 1013.10 1012.78 1012.42 1012.03 1011.62 1011.20 1010.80 1010.42 1010.09 1009.82 1009.61 1009.47 1009.39 1009.36 1009.38 1009.43 1009.51 1009.60 1009.71 1009.82 1009.95 1010.10
Thickness
5783 5783 5779 5777 5777 5778 5776 5775 5775 5775 5774 5775 5775 5775 5774 5774 5773 5772 5771 5768 5765 5763 5761 5760 5759 5759 5758 5757 5755 5754 5752 5750 5748 5746 5744 5742 5740 5738 5735 5733 5730 5727 5724
5781 5780 5777 5775 5775 5775 5774 5773 5773 5773 5773 5774 5773 5774 5773 5774 5774 5773 5773 5772 5769 5766 5764 5762 5761 5760 5759 5757 5756 5754 5752 5750 5748 5746 5744 5743 5741 5739 5737 5734 5732 5729 5726
5777 5775 5775 5774 5774 5773 5770 5769 5770 5770 5770 5771 5772 5773 5774 5773 5774 5773 5772 5772 5772 5770 5767 5765 5762 5761 5759 5757 5755 5753 5751 5749 5748 5746 5744 5742 5741 5739 5737 5735 5733 5730 5727
5773 5771 5771 5771 5770 5768 5767 5766 5765 5765 5766 5766 5768 5770 5772 5773 5772 5773 5773 5773 5772 5772 5771 5767 5764 5761 5759 5757 5755 5753 5751 5749 5746 5744 5743 5741 5740 5738 5737 5735 5733 5731 5728
5767 5764 5764 5764 5763 5762 5762 5761 5763 5760 5759 5760 5763 5766 5769 5771 5772 5773 5773 5773 5772 5770 5770 5769 5765 5762 5759 5757 5754 5752 5750 5748 5746 5743 5742 5740 5739 5738 5736 5734 5733 5731 5728
5759 5757 5756 5755 5755 5754 5754 5754 5753 5754 5753 5754 5757 5762 5765 5769 5770 5771 5771 5773 5773 5771 5770 5769 5767 5764 5759 5756 5754 5751 5749 5747 5745 5743 5741 5739 5738 5737 5736 5734 5733 5731 5728
5749 5747 5747 5746 5745 5745 5746 5748 5748 5748 5748 5749 5749 5754 5762 5768 5770 5769 5769 5769 5771 5771 5769 5767 5764 5764 5761 5755 5752 5749 5747 5745 5744 5742 5740 5738 5737 5737 5735 5734 5732 5731 5728
5739 5738 5737 5736 5736 5736 5738 5739 5739 5739 5742 5744 5741 5742 5748 5758 5765 5768 5766 5764 5764 5766 5765 5764 5761 5757 5756 5756 5753 5747 5745 5743 5741 5740 5738 5737 5736 5735 5735 5733 5732 5730 5728
5729 5727 5726 5726 5726 5728 5731 5732 5732 5732 5734 5737 5738 5734 5734 5742 5749 5757 5758 5757 5755 5755 5756 5757 5755 5753 5749 5749 5748 5745 5742 5740 5738 5737 5735 5734 5734 5733 5733 5732 5731 5730 5728
5722 5720 5718 5718 5718 5720 5722 5724 5728 5727 5726 5729 5733 5732 5729 5729 5725 5734 5746 5748 5747 5744 5745 5747 5748 5747 5744 5743 5741 5739 5736 5735 5734 5733 5732 5731 5731 5730 5730 5730 5730 5729 5727
5715 5713 5712 5712 5711 5713 5714 5716 5718 5720 5722 5722 5724 5724 5724 5723 5721 5716 5724 5731 5734 5737 5738 5738 5739 5738 5737 5735 5733 5732 5729 5728 5727 5727 5726 5726 5726 5726 5727 5727 5728 5728 5727
5709 5706 5706 5703 5703 5705 5707 5710 5711 5713 5714 5715 5715 5716 5715 5714 5714 5712 5713 5718 5720 5725 5728 5728 5729 5730 5728 5727 5725 5723 5721 5720 5720 5720 5720 5720 5720 5721 5722 5724 5725 5726 5726
5701 5698 5698 5697 5696 5696 5698 5701 5703 5704 5706 5706 5706 5708 5709 5709 5708 5707 5706 5709 5711 5716 5718 5720 5720 5720 5720 5719 5717 5714 5713 5712 5712 5713 5713 5713 5714 5716 5717 5719 5722 5724 5724
5694 5691 5690 5690 5689 5689 5691 5693 5696 5697 5697 5697 5699 5699 5701 5703 5703 5702 5700 5700 5702 5706 5707 5708 5711 5710 5710 5709 5707 5704 5706 5704 5704 5704 5705 5706 5708 5710 5712 5715 5718 5720 5722
5685 5683 5682 5682 5681 5682 5684 5685 5688 5688 5689 5691 5692 5693 5693 5695 5696 5696 5696 5695 5692 5693 5696 5698 5698 5699 5699 5698 5697 5698 5698 5696 5695 5696 5697 5699 5701 5704 5707 5711 5714 5717 5718
5674 5673 5672 5673 5674 5675 5677 5678 5681 5681 5681 5682 5682 5682 5683 5687 5687 5689 5690 5689 5687 5684 5684 5687 5687 5688 5688 5689 5689 5689 5689 5687 5687 5687 5688 5690 5693 5697 5701 5705 5709 5712 5713
5663 5663 5663 5664 5665 5667 5669 5671 5674 5673 5673 5674 5674 5674 5673 5675 5677 5680 5681 5681 5680 5678 5676 5680 5680 5680 5678 5679 5680 5680 5680 5679 5680 5678 5679 5682 5685 5689 5693 5697 5702 5705 5707
5651 5652 5653 5655 5657 5658 5660 5663 5664 5664 5664 5663 5663 5663 5663 5666 5666 5668 5669 5670 5671 5669 5668 5667 5669 5670 5669 5669 5670 5670 5670 5670 5670 5670 5670 5672 5675 5679 5683 5688 5692 5696 5698
5638 5641 5643 5645 5647 5649 5651 5653 5653 5653 5653 5653 5652 5652 5652 5654 5654 5657 5657 5660 5662 5663 5661 5660 5660 5660 5660 5661 5661 5661 5662 5661 5662 5661 5661 5662 5665 5668 5672 5677 5681 5685 5688
5627 5629 5633 5636 5639 5641 5643 5643 5643 5642 5642 5641 5640 5640 5641 5641 5642 5644 5647 5648 5650 5651 5651 5651 5650 5651 5651 5652 5652 5652 5653 5653 5653 5654 5653 5654 5655 5657 5661 5664 5669 5672 5675
5619 5622 5625 5628 5631 5633 5634 5633 5633 5632 5631 5630 5629 5629 5627 5625 5624 5627 5632 5633 5637 5639 5641 5640 5639 5640 5639 5639 5641 5643 5644 5645 5645 5644 5645 5646 5648 5650 5652 5653 5656 5658 5660
5612 5615 5617 5620 5621 5622 5617 5619 5623 5622 5621 5620 5619 5620 5619 5617 5614 5613 5613 5614 5616 5621 5623 5625 5626 5625 5624 5627 5630 5632 5634 5633 5632 5634 5635 5636 5639 5641 5643 5644 5644 5645 5646
5606 5608 5610 5610 5609 5605 5605 5607 5610 5613 5612 5610 5610 5610 5612 5608 5608 5609 5606 5605 5605 5604 5604 5609 5609 5608 5612 5614 5618 5622 5622 5621 5621 5624 5626 5626 5628 5630 5634 5633 5633 5633 5633
5601 5602 5603 5602 5600 5596 5595 5598 5600 5604 5603 5601 5601 5600 5599 5598 5596 5596 5600 5599 5598 5595 5595 5597 5596 5595 5598 5601 5607 5612 5613 5614 5614 5615 5617 5616 5618 5620 5623 5624 5623 5623 5623
5597 5597 5598 5596 5594 5589 5588 5590 5594 5597 5595 5593 5592 5590 5591 5589 5583 5585 5591 5589 5588 5588 5585 5583 5582 5584 5586 5589 5593 5603 5605 5608 5606 5606 5607 5607 5608 5610 5612 5613 5614 5614 5615
5594 5594 5592 5592 5590 5587 5582 5584 5586 5595 5590 5590 5587 5585 5577 5577 5574 5576 5581 5580 5578 5577 5578 5580 5577 5578 5580 5582 5584 5586 5591 5595 5596 5597 5597 5599 5600 5602 5602 5604 5606 5607 5608